This demonstration page uses our WeatherBlox Daily Observations layout. Learn more.

Left ArrowRight Arrow

40.97296, -117.73568

Hourly Observations for May 19, 2022

Temp ( °F °C ) Dew Point ( °F °C ) Humidity (%) Winds ( mph kmh ) Pressure ( in mb ) Visibility ( mi km ) Precip ( " mm )
12:56 am 00:56 Clear 65 18.3 36 2.2 34 34 Calm 29.90 1013 10 16 0.00 0.00
1:31 am 01:31 Hazy 66 18.9 34 1.1 30 30 W 15 24 29.85 1011 5 8 0.00 0.00
1:56 am 01:56 Mostly Clear 64 17.8 34 1.1 33 33 W 13 20 29.90 1012 10 16 0.00 0.00
2:56 am 02:56 Clear 64 17.8 33 0.6 32 32 W 12 19 29.87 1012 10 16 0.00 0.00
3:56 am 03:56 Clear 63 17.2 34 1.1 34 34 WSW 17 28 29.85 1011 10 16 0.00 0.00
4:56 am 04:56 Clear 61 16.1 35 1.7 38 38 WSW 10 17 29.85 1011 10 16 0.00 0.00
5:56 am 05:56 Sunny 61 16.1 35 1.7 38 38 W 17 28 29.84 1011 10 16 0.00 0.00
6:56 am 06:56 Sunny 61 16.1 37 2.8 41 41 W 12 19 29.86 1011 10 16 0.00 0.00
7:56 am 07:56 Sunny 64 17.8 37 2.8 37 37 W 15 24 29.85 1011 10 16 0.00 0.00
8:56 am 08:56 Sunny 67 19.4 38 3.3 35 35 W 17 28 29.84 1010 10 16 0.00 0.00
9:56 am 09:56 Mostly Cloudy 69 20.6 36 2.2 30 30 WNW 18 30 29.84 1011 10 16 0.00 0.00
11:56 am 11:56 Sunny 70 21.1 18 -7.8 14 14 W 23 37 29.81 1010 10 16 0.00 0.00
12:56 pm 12:56 Sunny 71 21.7 10 -12.2 9 9 W 23 37 29.77 1008 10 16 0.00 0.00
1:56 pm 13:56 Sunny 71 21.7 -1 -18.3 5 5 W 20 31 29.76 1008 10 16 0.00 0.00
2:56 pm 14:56 Sunny 71 21.7 -4 -20 5 5 WNW 30 48 29.73 1007 8 13 0.00 0.00
3:56 pm 15:56 Sunny 70 21.1 -2 -18.9 5 5 WNW 25 41 29.70 1006 10 16 0.00 0.00
4:56 pm 16:56 Sunny 67 19.4 10 -12.2 11 11 NW 24 39 29.73 1007 10 16 0.00 0.00
5:56 pm 17:56 Sunny 61 16.1 13 -10.6 15 15 N 22 35 29.78 1008 10 16 0.00 0.00
6:56 pm 18:56 Sunny 57 13.9 14 -10 18 18 NNW 21 33 29.80 1009 10 16 0.00 0.00
7:56 pm 19:56 Sunny 51 10.6 17 -8.3 26 26 N 22 35 29.84 1010 10 16 0.00 0.00
8:56 pm 20:56 Clear 47 8.3 15 -9.4 28 28 N 15 24 29.89 1012 10 16 0.00 0.00
9:56 pm 21:56 Partly Cloudy 44 6.7 17 -8.3 34 34 N 12 19 29.92 1013 10 16 0.00 0.00
10:56 pm 22:56 Cloudy 44 6.7 15 -9.4 31 31 N 16 26 29.93 1013 10 16 0.00 0.00
11:56 pm 23:56 Cloudy 42 5.6 15 -9.4 33 33 NNW 12 19 29.95 1014 10 16 0.00 0.00

Powered by AerisWeather